カタログに戻る

SL-8 R/B

運用中PO
NORAD 11170·ROCKET BODY·🇷🇺 Russia

打ち上げ Dec 26, 1978 から Plesetsk Cosmodrome

Loading…

次のパス (今後24時間)

TLE

最新Source: Space-Track

元期: Sep 14, 2026, 13:23 UTC

1 11170U 78122B   26257.55777968  .00000051  00000-0  90712-4 0  9995
2 11170  82.9696 117.6660 0025748 156.0897 219.7253 13.22173390284689

AllMySatでSL-8 R/Bをリアルタイム追跡

Download on the App Store